User: anonymous   Login
Location: Caltech
(34.1382°N, 118.1253°W)
Time: 04:43:33
(UTC-07:00)
Language:

Cosmos-2242 - Orbit

View from above orbital plane
View from above orbital plane
View from above satellite
View from above satellite

Ground track
Ground track

The orbit data is extracted from the following two-line orbital elements,

1 22626U 93024A   15145.40687386  .00000662  00000-0  70967-4 0  9991
2 22626 082.5240 032.1202 0020925 101.0245 259.3327 14.86962392194108
Epoch (UTC): 25 May 2015 09:45:53
Eccentricity: 0.0020925
inclination: 82.5240°
perigee height: 593 km
apogee height: 622 km
right ascension of ascending node: 32.1202°
argument of perigee: 101.0245°
revolutions per day: 14.86962392
mean anomaly at epoch: 259.3327°
orbit number at epoch: 19410

The dashed part of the orbit path shows where the satellite is in the earth's shadow,  

DLR